Location: Newark
(45.8667°N, 9.7333°E)
Time: 04:27:53
(UTC+00:00)

A-11 Canister half - Pass Details

Date: 22 January 2020
Orbit: 1517 x 1683 km, 47.2° (Epoch: 17 February)

Event Time Altitude Azimuth Distance (km) Brightness Sun altitude
Rises 23:50:02 0° 228° (SW) 4,722 - -63.7°
Reaches altitude 10° 23:53:10 10° 225° (SW) 3,722 - -63.6°
Maximum altitude 00:02:17 60° 149° (SSE) 1,711 - -63.3°
Drops below altitude 10° 00:11:17 10° 72° (ENE) 3,682 - -62.8°
Exits shadow 00:13:05 - 70° (ENE) 4,252 11.5 -62.7°
Sets 00:14:22 0° 69° (ENE) 4,669 11.8 -62.6°
